CW9414 Weather Reports


Display with metric or nautical units.
time (UTC)temp
F
wind
direction
speed
MPH
gust
MPH
rain 1hr
in
rain 24hr
in
rain mn
in
humidity
%
barometer
mb
20260509204407 92 300 1.0 5.0 0.00 0.00 0.00 55 1004.5
20260509203407 91 302 0.0 3.0 0.00 0.00 0.00 56 1004.5
20260509202410 91 302 0.0 3.0 0.00 0.00 0.00 56 1004.6
20260509201410 90 302 0.0 2.0 0.00 0.00 0.00 58 1004.7
20260509200406 90 302 1.0 3.0 0.00 0.00 0.00 57 1004.7
20260509195407 90 303 1.0 5.0 0.00 0.00 0.00 57 1004.9
20260509194407 90 304 0.0 4.0 0.00 0.00 0.00 61 1005.1
20260509193407 89 304 1.0 4.0 0.00 0.00 0.00 60 1005.1
20260509192407 88 304 1.0 5.0 0.00 0.00 0.00 59 1005.1
20260509191407 88 306 4.0 7.0 0.00 0.00 0.00 61 1005.1
20260509190407 87 140 1.0 2.0 0.00 0.00 0.00 64 1005.1
20260509185406 86 140 1.0 3.0 0.00 0.00 0.00 64 1005.2
20260509184407 86 140 0.0 3.0 0.00 0.00 0.00 64 1005.6
20260509183407 86 140 1.0 3.0 0.00 0.00 0.00 66 1005.6
20260509182406 85 140 1.0 3.0 0.00 0.00 0.00 68 1005.8
20260509181407 85 140 0.0 3.0 0.00 0.00 0.00 68 1006.1
20260509180410 85 140 2.0 4.0 0.00 0.00 0.00 69 1006.1
20260509175410 85 140 0.0 3.0 0.00 0.00 0.00 69 1006.2
20260509174411 85 140 0.0 9.0 0.00 0.00 0.00 71 1006.6
20260509173407 84 142 5.0 6.0 0.00 0.00 0.00 74 1006.6
20260509172410 83 142 3.0 5.0 0.00 0.00 0.00 77 1006.6
20260509171410 82 146 3.0 6.0 0.00 0.00 0.00 79 1006.8
20260509170406 81 146 0.0 4.0 0.00 0.00 0.00 82 1006.8
20260509165407 80 146 0.0 2.0 0.00 0.00 0.00 83 1006.7
20260509164406 80 146 0.0 2.0 0.00 0.00 0.00 85 1006.7
20260509163406 79 146 1.0 2.0 0.00 0.00 0.00 87 1006.7
20260509162407 79 146 0.0 1.0 0.00 0.00 0.00 88 1006.7
20260509161407 79 146 0.0 1.0 0.00 0.00 0.00 89 1006.6
20260509160409 78 146 2.0 3.0 0.00 0.00 0.00 89 1006.6
20260509155408 78 146 0.0 0.0 0.00 0.00 0.00 90 1006.8
20260509154407 78 146 0.0 1.0 0.00 0.00 0.00 91 1006.6
20260509153406 78 146 0.0 1.0 0.00 0.00 0.00 91 1006.6
20260509152406 78 146 0.0 0.0 0.00 0.00 0.00 92 1006.7
20260509151407 77 146 0.0 0.0 0.00 0.00 0.00 92 1006.6
20260509150406 77 146 0.0 0.0 0.00 0.00 0.00 93 1006.6
20260509145406 77 146 0.0 0.0 0.00 0.00 0.00 93 1006.4
20260509144406 77 146 0.0 0.0 0.00 0.00 0.00 93 1006.0
20260509143407 76 146 0.0 0.0 0.00 0.00 0.00 94 1006.0
20260509142406 76 146 0.0 0.0 0.00 0.00 0.00 94 1005.8
20260509141406 76 146 0.0 1.0 0.00 0.00 0.00 94 1005.5
20260509140406 76 146 0.0 1.0 0.00 0.00 0.00 94 1005.5
20260509135407 76 146 0.0 1.0 0.00 0.00 0.00 94 1006.0
20260509134407 76 146 0.0 2.0 0.00 0.00 0.00 94 1006.6
20260509133406 76 146 0.0 1.0 0.00 0.00 0.00 94 1006.6
20260509132407 76 146 0.0 2.0 0.00 0.00 0.00 94 1006.6
20260509131407 76 146 0.0 0.0 0.00 0.00 0.00 94 1007.1
20260509130410 75 146 0.0 0.0 0.00 0.00 0.00 94 1007.1
20260509125406 75 146 0.0 0.0 0.00 0.00 0.00 94 1006.4
20260509124406 75 146 0.0 1.0 0.00 0.00 0.00 94 1006.6
20260509123406 75 146 0.0 0.0 0.00 0.00 0.00 94 1006.6
20260509122411 75 146 0.0 0.0 0.00 0.00 0.00 93 1006.6
20260509121406 75 146 0.0 0.0 0.00 0.00 0.00 93 1006.6
20260509120406 74 146 0.0 0.0 0.00 0.00 0.00 93 1006.6
20260509115409 75 146 0.0 0.0 0.00 0.00 0.00 93 1006.3
20260509114406 75 146 0.0 0.0 0.00 0.00 0.00 93 1006.2
20260509113406 75 146 0.0 1.0 0.00 0.00 0.00 93 1006.2
20260509112407 75 146 0.0 0.0 0.00 0.00 0.00 93 1006.1
20260509111406 75 146 0.0 0.0 0.00 0.00 0.00 93 1006.0
20260509110406 75 146 0.0 0.0 0.00 0.00 0.00 93 1006.0
20260509105406 75 146 0.0 0.0 0.00 0.00 0.00 93 1005.6
20260509104406 75 146 0.0 0.0 0.00 0.00 0.00 92 1005.5
20260509103406 75 146 0.0 0.0 0.00 0.00 0.00 92 1005.5
20260509102407 75 146 0.0 0.0 0.00 0.00 0.00 92 1005.9
20260509101407 75 146 0.0 0.0 0.00 0.00 0.00 92 1005.6
20260509100407 75 146 0.0 0.0 0.00 0.00 0.00 92 1005.6
20260509095407 75 146 0.0 0.0 0.00 0.00 0.00 92 1005.3
20260509094409 75 146 0.0 0.0 0.00 0.00 0.00 92 1005.2
20260509093409 75 146 0.0 0.0 0.00 0.00 0.00 92 1005.2
20260509092409 75 146 0.0 0.0 0.00 0.00 0.00 92 1005.5
20260509091406 75 146 0.0 0.0 0.00 0.00 0.00 92 1005.8
20260509090406 75 146 0.0 0.0 0.00 0.00 0.00 92 1005.8
20260509085409 75 146 0.0 0.0 0.00 0.00 0.00 92 1005.8
20260509084406 75 146 0.0 0.0 0.00 0.00 0.00 92 1005.5
20260509083407 75 146 0.0 0.0 0.00 0.00 0.00 92 1005.5
20260509082406 75 146 0.0 0.0 0.00 0.00 0.00 92 1005.5
20260509081406 75 146 0.0 0.0 0.00 0.00 0.00 92 1005.5
20260509080406 75 146 0.0 0.0 0.00 0.00 0.00 92 1005.5
20260509075406 75 146 0.0 0.0 0.00 0.00 0.00 92 1005.5
20260509074406 75 146 0.0 1.0 0.00 0.00 0.00 92 1005.2
20260509073409 75 146 0.0 3.0 0.00 0.00 0.00 92 1005.2
20260509072409 75 146 0.0 1.0 0.00 0.00 0.00 92 1005.6
20260509071406 75 146 0.0 1.0 0.00 0.00 0.00 92 1005.9
20260509070406 75 146 0.0 1.0 0.00 0.00 0.00 91 1005.9
20260509065406 75 146 0.0 1.0 0.00 0.00 0.00 91 1006.1
20260509064406 75 146 0.0 0.0 0.00 0.00 0.00 91 1006.0
20260509063406 75 146 0.0 0.0 0.00 0.00 0.00 91 1006.0
20260509062406 75 146 0.0 0.0 0.00 0.00 0.00 91 1006.2
20260509061406 75 146 0.0 1.0 0.00 0.00 0.00 91 1006.2
20260509060406 75 146 0.0 0.0 0.00 0.00 0.00 91 1006.2
20260509055406 75 146 0.0 1.0 0.00 0.00 0.00 91 1006.4
20260509054409 75 146 0.0 1.0 0.00 0.00 0.00 91 1006.2
20260509053407 75 146 0.0 0.0 0.00 0.00 0.00 91 1006.2
20260509052406 75 146 0.0 0.0 0.00 0.00 0.00 91 1006.3
20260509051407 75 146 0.0 0.0 0.00 0.00 0.00 90 1006.4
20260509050406 75 146 0.0 1.0 0.00 0.00 0.02 90 1006.4
20260509045406 75 146 0.0 2.0 0.00 0.00 0.02 90 1006.3
20260509044406 75 146 0.0 1.0 0.00 0.00 0.02 90 1006.5
20260509043406 75 146 0.0 2.0 0.00 0.00 0.02 90 1006.5
20260509042407 75 146 0.0 0.0 0.00 0.00 0.02 90 1006.5
20260509041406 75 146 0.0 0.0 0.00 0.00 0.02 89 1006.3
20260509040405 75 146 0.0 2.0 0.00 0.00 0.02 89 1006.3
20260509035407 75 146 0.0 1.0 0.00 0.00 0.02 89 1006.2
20260509034406 75 146 0.0 1.0 0.00 0.00 0.02 89 1006.0
20260509033406 75 146 0.0 0.0 0.00 0.00 0.02 89 1006.0
20260509032406 75 146 0.0 2.0 0.00 0.00 0.02 89 1005.8
20260509031405 75 146 0.0 1.0 0.00 0.00 0.02 89 1005.8
20260509030405 75 146 0.0 2.0 0.00 0.00 0.02 88 1005.8
20260509025405 75 146 0.0 2.0 0.00 0.00 0.02 88 1005.9
20260509024406 74 146 0.0 1.0 0.00 0.00 0.02 88 1005.6
20260509023406 74 146 0.0 1.0 0.00 0.00 0.02 87 1005.6
20260509022406 74 146 0.0 0.0 0.00 0.00 0.02 87 1005.6
20260509021406 74 146 0.0 0.0 0.00 0.00 0.02 87 1005.1
20260509020406 74 146 0.0 0.0 0.00 0.00 0.02 87 1005.1
20260509015407 74 146 0.0 0.0 0.00 0.00 0.02 87 1005.3
20260509014405 74 146 0.0 0.0 0.00 0.00 0.02 86 1005.1
20260509013405 75 146 0.0 1.0 0.00 0.00 0.02 86 1005.1
20260509012406 75 146 0.0 0.0 0.00 0.00 0.02 86 1005.1
20260509011406 75 146 0.0 0.0 0.00 0.00 0.02 86 1005.2
20260509010408 75 146 0.0 0.0 0.00 0.00 0.02 86 1005.2
20260509005406 75 146 0.0 2.0 0.00 0.00 0.02 86 1004.9
20260509004406 75 146 0.0 1.0 0.00 0.00 0.02 85 1005.1
20260509003405 75 146 0.0 0.0 0.00 0.00 0.02 85 1005.1
20260509002405 75 146 0.0 1.0 0.00 0.00 0.02 85 1005.1
20260509001406 75 146 0.0 0.0 0.00 0.00 0.02 85 1005.1
20260509000410 75 146 0.0 0.0 0.00 0.00 0.02 85 1005.1
20260508235405 75 146 0.0 0.0 0.00 0.00 0.02 85 1005.0
20260508234406 75 146 0.0 1.0 0.00 0.00 0.02 85 1005.0
20260508233405 75 146 1.0 1.0 0.00 0.00 0.02 85 1005.0
20260508232405 75 146 0.0 0.0 0.00 0.00 0.02 84 1005.4
20260508231405 75 146 0.0 0.0 0.00 0.00 0.02 84 1005.5
20260508230405 75 146 0.0 2.0 0.00 0.00 0.02 83 1005.5
20260508225406 76 146 0.0 1.0 0.00 0.00 0.02 83 1005.4
20260508224405 76 146 0.0 2.0 0.00 0.00 0.02 83 1005.2
20260508223405 76 146 0.0 2.0 0.00 0.00 0.02 83 1005.2
20260508222405 76 146 0.0 3.0 0.00 0.00 0.02 83 1005.4
20260508221405 76 146 0.0 1.0 0.00 0.00 0.02 82 1005.5
20260508220405 76 146 0.0 0.0 0.00 0.00 0.02 82 1005.5
20260508215406 76 146 0.0 2.0 0.00 0.00 0.02 82 1005.5
20260508214406 77 146 0.0 0.0 0.00 0.00 0.02 82 1005.5
20260508213406 77 146 0.0 1.0 0.00 0.00 0.02 83 1005.5
20260508212405 76 146 0.0 2.0 0.00 0.00 0.02 83 1005.9
20260508211409 76 146 0.0 1.0 0.00 0.00 0.02 83 1006.0
20260508210408 76 146 0.0 4.0 0.00 0.00 0.02 83 1006.0
20260508205405 76 146 0.0 1.0 0.00 0.00 0.02 83 1006.1